This demonstration page uses our WeatherBlox Daily Observations layout. Learn more.

Left ArrowRight Arrow

Hourly Observations for January 30, 2017

Temp ( °F °C ) Dew Point ( °F °C ) Humidity (%) Winds ( mph kmh ) Pressure ( in mb ) Visibility ( mi km ) Precip ( " mm )
12:58 am 00:58 Clear 27 -2.6 27 -2.6 100 100 S 3 6 30.04 1017 10 16 0.00 0.00
1:43 am 01:43 Clear with Mist and Fog 25 -4 25 -4 100 100 Calm 30.06 1018 3 4 0.00 0.00
1:58 am 01:58 Clear with Mist and Fog 26 -3.3 26 -3.3 100 100 Calm 30.02 1017 3 4 0.00 0.00
2:04 am 02:04 Clear with Mist and Fog 27 -3 27 -3 100 100 Calm 30.03 1017 6 10 0.00 0.00
2:58 am 02:58 Clear 26 -3.2 26 -3.2 100 100 Calm 30.01 1016 8 13 0.00 0.00
3:58 am 03:58 Clear 25 -3.8 25 -3.8 100 100 SSE 3 6 29.98 1015 9 14 0.00 0.00
4:58 am 04:58 Clear 24 -4.6 24 -4.6 100 100 Calm 29.95 1014 10 16 0.00 0.00
5:47 am 05:47 Clear with Mist and Fog 23 -5 23 -5 100 100 Calm 29.97 1015 1 2 0.00 0.00
5:58 am 05:58 Clear with Mist and Fog 23 -5.2 23 -5.2 100 100 Calm 29.94 1014 6 10 0.00 0.00
6:58 am 06:58 Clear 24 -4.5 24 -4.5 100 100 SSE 3 6 29.92 1013 10 16 0.00 0.00
7:58 am 07:58 Mostly Cloudy 24 -4.4 24 -4.4 100 100 Calm 29.93 1014 10 16 0.00 0.00
8:58 am 08:58 Cloudy 30 -1.2 30 -1.2 100 100 Calm 29.91 1013 10 16 0.00 0.00
9:58 am 09:58 Partly Cloudy 37 2.7 37 2.6 99 99 S 5 7 29.89 1012 10 16 0.00 0.00
10:58 am 10:58 Sunny 43 6 37 2.5 78 78 WSW 9 15 29.87 1011 10 16 0.00 0.00
11:58 am 11:58 Sunny 49 9.3 35 1.9 60 60 WNW 13 20 29.86 1011 10 16 0.00 0.00
12:58 pm 12:58 Sunny 53 11.9 35 1.4 49 49 WNW 16 26 29.84 1011 10 16 0.00 0.00
1:58 pm 13:58 Sunny 56 13.3 32 0 40 40 WNW 21 33 29.83 1010 10 16 0.00 0.00
2:58 pm 14:58 Sunny 56 13.1 28 -2.3 35 35 WNW 16 26 29.83 1010 10 16 0.00 0.00
3:58 pm 15:58 Sunny 54 12.3 29 -1.9 38 38 W 21 33 29.84 1011 10 16 0.00 0.00
4:58 pm 16:58 Sunny 51 10.5 28 -2.4 41 41 W 18 30 29.85 1011 10 16 0.00 0.00
5:58 pm 17:58 Clear 48 8.7 28 -2 47 47 W 14 22 29.89 1012 10 16 0.00 0.00
6:58 pm 18:58 Clear 45 7.3 28 -2.2 51 51 W 12 19 29.89 1012 10 16 0.00 0.00
7:58 pm 19:58 Clear 43 6.1 28 -2.3 55 55 W 10 17 29.89 1012 10 16 0.00 0.00
8:58 pm 20:58 Clear 41 5.2 28 -2.3 59 59 W 9 15 29.90 1012 10 16 0.00 0.00
9:58 pm 21:58 Clear 40 4.7 28 -2.4 60 60 WNW 10 17 29.91 1013 10 16 0.00 0.00
10:58 pm 22:58 Clear 40 4.5 28 -2.4 61 61 W 12 19 29.90 1012 10 16 0.00 0.00
11:58 pm 23:58 Clear 40 4.7 28 -2.2 61 61 W 12 19 29.91 1013 10 16 0.00 0.00

Powered by AerisWeather